Flag for Canada Weather past 2 weeks in Pond Inlet, Nunavut Territory, Canada

Now
0 °F

Sunny.


Feels Like: -10 °F
Forecast: -14 / -3 °F
Wind: 5 mph from Southwest

Location: Pond Inlet


UV Index: 0 (Low)

Visibility: 9 mi


Pressure: 30.14 "Hg

Humidity: 78%

Dew point: -6 °F

Location of Pond InletLocation

Historic Weather in Pond Inlet

°F

Pond Inlet temperature yesterday

Maximum temperature yesterday: 5 °F (at 3:00 PM)
Minimum temperature yesterday: -4 °F (at 3:00 AM)
Average temperature yesterday: 0 °F

Past Weeks' High & Low Weather Summary

 TemperatureHumidityPressure
High12 °F (Apr 10, 3:00 PM)92% (Apr 20, 11:00 PM)30.19 "Hg (Apr 20, 11:00 PM)
Low-20 °F (Apr 6, 8:00 AM)40% (Apr 10, 6:00 PM)29.37 "Hg (Apr 17, 3:00 PM)
Average-3 °F72%29.84 "Hg
* Reported Apr 6 8:00 AM — Apr 21 8:00 AM, Pond Inlet, Weather by CustomWeather, © 2014

Note: Actual official high and low records may vary slightly from our data, if they occured in-between our weather recording intervals... More about our weather records

Advertising

Historic Weather Conditions — Data for Previous 24 hours

 ConditionsComfort  
Time TempWeatherWind HumidityBarometerVisibility
8:00 AM
Apr 21
-2 °FPassing clouds.6 mph77%30.14 "Hg9 mi
7:00 AM-4 °FSunny.7 mph84%30.14 "Hg9 mi
6:00 AM-4 °FSunny.7 mph77%30.13 "Hg9 mi
5:00 AM-8 °FSunny.8 mph84%30.13 "Hg9 mi
4:00 AM-8 °FSunny.9 mph84%30.12 "Hg9 mi
3:00 AM-4 °FClear.6 mph84%30.12 "Hg9 mi
2:00 AM-4 °FClear.No wind84%30.11 "Hg9 mi
1:00 AM-6 °FClear.3 mph92%30.10 "Hg9 mi
12:00 AM-6 °FClear.2 mph84%30.10 "Hg9 mi
11:00 PM
Apr 20
-4 °FClear.3 mph92%30.10 "Hg9 mi
10:00 PM-4 °FClear.3 mph84%30.10 "Hg9 mi
9:00 PM-2 °FSunny.3 mph84%30.09 "Hg9 mi
8:00 PM0 °FSunny.5 mph84%30.09 "Hg9 mi
7:00 PM3 °FSunny.3 mph85%30.09 "Hg9 mi
6:00 PM3 °FSunny.5 mph85%30.08 "Hg9 mi
5:00 PM3 °FSunny.6 mph85%30.07 "Hg9 mi
4:00 PM5 °FSunny.3 mph78%30.06 "Hg9 mi
3:00 PM5 °FSunny.2 mph78%30.06 "Hg9 mi
2:00 PM3 °FSunny.3 mph85%30.05 "Hg9 mi
1:00 PM1 °FSunny.2 mph85%30.05 "Hg9 mi
12:00 PM3 °FSunny.2 mph78%30.03 "Hg9 mi
11:00 AM3 °FSunny.2 mph85%30.03 "Hg9 mi
10:00 AM3 °FSunny.No wind78%30.03 "Hg9 mi
9:00 AM1 °FSunny.No wind85%30.03 "Hg9 mi
Weather by CustomWeather, © 2014

See weather overview